Time,TemperatureF,DewpointF,PressureIn,WindDirection,WindDirectionDegrees,WindSpeedMPH,WindSpeedGustMPH,Humidity,HourlyPrecipIn,Conditions,Clouds,dailyrainin,SolarRadiationWatts/m^2,SoftwareType,DateUTC
2013-07-24 00:01:00,79.0,63.0,30.04,WNW,302,1.0,5.0,58,-99.99,,,-99.99,0.000000,,2013-07-24 06:01:00,
2013-07-24 00:11:00,78.0,63.0,30.05,North,351,5.0,9.0,59,-99.99,,,-99.99,0.000000,,2013-07-24 06:11:00,
2013-07-24 00:24:00,78.0,64.0,30.05,NNE,14,5.0,7.0,61,-99.99,,,-99.99,0.000000,,2013-07-24 06:24:00,
2013-07-24 00:34:00,78.0,64.0,30.05,NNE,14,5.0,7.0,61,-99.99,,,-99.99,0.000000,,2013-07-24 06:34:00,
2013-07-24 00:43:00,77.0,64.0,30.05,ENE,58,4.0,7.0,63,-99.99,,,-99.99,0.000000,,2013-07-24 06:43:00,
2013-07-24 01:02:00,77.0,64.0,30.05,SE,124,3.0,8.0,64,-99.99,,,-99.99,0.000000,,2013-07-24 07:02:00,
2013-07-24 01:12:00,75.0,64.0,30.05,SE,140,6.0,8.0,70,-99.99,,,-99.99,0.000000,,2013-07-24 07:12:00,
2013-07-24 01:22:00,74.0,64.0,30.05,SE,133,6.0,8.0,71,-99.99,,,-99.99,0.000000,,2013-07-24 07:22:00,
2013-07-24 01:32:00,74.0,64.0,30.05,SE,133,6.0,8.0,71,-99.99,,,-99.99,0.000000,,2013-07-24 07:32:00,
2013-07-24 01:43:00,74.0,64.0,30.05,SE,134,5.0,8.0,71,-99.99,,,-99.99,0.000000,,2013-07-24 07:43:00,
2013-07-24 01:53:00,74.0,64.0,30.05,SE,136,5.0,7.0,72,-99.99,,,-99.99,0.000000,,2013-07-24 07:53:00,
2013-07-24 02:02:00,74.0,64.0,30.05,SE,136,5.0,7.0,72,-99.99,,,-99.99,0.000000,,2013-07-24 08:02:00,
2013-07-24 02:12:00,74.0,65.0,30.06,ESE,116,4.0,7.0,73,-99.99,,,-99.99,0.000000,,2013-07-24 08:12:00,
2013-07-24 02:22:00,73.0,65.0,30.06,ESE,118,4.0,6.0,75,-99.99,,,-99.99,0.000000,,2013-07-24 08:22:00,
2013-07-24 02:32:00,73.0,65.0,30.06,ESE,118,4.0,6.0,75,-99.99,,,-99.99,0.000000,,2013-07-24 08:32:00,
2013-07-24 02:42:00,73.0,66.0,30.06,East,98,0.0,2.0,77,-99.99,,,-99.99,0.000000,,2013-07-24 08:42:00,
2013-07-24 02:52:00,73.0,65.0,30.05,East,88,0.0,2.0,78,-99.99,,,-99.99,0.000000,,2013-07-24 08:52:00,
2013-07-24 03:02:00,73.0,65.0,30.05,East,88,0.0,2.0,78,-99.99,,,-99.99,0.000000,,2013-07-24 09:02:00,
2013-07-24 03:12:00,72.0,65.0,30.05,ENE,67,2.0,3.0,78,-99.99,,,-99.99,0.000000,,2013-07-24 09:12:00,
2013-07-24 03:22:00,72.0,65.0,30.05,NE,53,4.0,5.0,79,-99.99,,,-99.99,0.000000,,2013-07-24 09:22:00,
2013-07-24 03:32:00,72.0,65.0,30.05,NE,53,4.0,5.0,79,-99.99,,,-99.99,0.000000,,2013-07-24 09:32:00,
2013-07-24 03:43:00,71.0,65.0,30.05,ENE,72,5.0,7.0,81,-99.99,,,-99.99,0.000000,,2013-07-24 09:43:00,
2013-07-24 03:53:00,71.0,65.0,30.06,ENE,67,4.0,5.0,83,-99.99,,,-99.99,0.000000,,2013-07-24 09:53:00,
2013-07-24 04:02:00,71.0,65.0,30.06,ENE,67,4.0,5.0,83,-99.99,,,-99.99,0.000000,,2013-07-24 10:02:00,
2013-07-24 04:12:00,70.0,65.0,30.06,ENE,73,3.0,5.0,84,-99.99,,,-99.99,0.000000,,2013-07-24 10:12:00,
2013-07-24 04:22:00,70.0,65.0,30.05,NE,55,2.0,4.0,84,-99.99,,,-99.99,0.000000,,2013-07-24 10:22:00,
2013-07-24 04:33:00,70.0,65.0,30.05,NE,55,2.0,4.0,84,-99.99,,,-99.99,0.000000,,2013-07-24 10:33:00,
2013-07-24 04:43:00,70.0,65.0,30.05,ENE,73,1.0,3.0,84,-99.99,,,-99.99,0.000000,,2013-07-24 10:43:00,
2013-07-24 04:53:00,70.0,65.0,30.05,ENE,72,0.0,1.0,84,-99.99,,,-99.99,0.000000,,2013-07-24 10:53:00,
2013-07-24 05:02:00,70.0,65.0,30.05,ENE,72,0.0,1.0,84,-99.99,,,-99.99,0.000000,,2013-07-24 11:02:00,
2013-07-24 05:12:00,70.0,65.0,30.05,NNW,348,2.0,4.0,85,-99.99,,,-99.99,0.000000,,2013-07-24 11:12:00,
2013-07-24 05:22:00,70.0,65.0,30.06,NNE,13,5.0,6.0,85,-99.99,,,-99.99,0.000000,,2013-07-24 11:22:00,
2013-07-24 05:32:00,70.0,65.0,30.06,NNE,13,5.0,6.0,85,-99.99,,,-99.99,0.000000,,2013-07-24 11:32:00,
2013-07-24 05:43:00,69.0,65.0,30.06,NE,44,3.0,5.0,85,-99.99,,,-99.99,0.000000,,2013-07-24 11:43:00,
2013-07-24 05:52:00,69.0,65.0,30.06,ENE,70,3.0,5.0,86,-99.99,,,-99.99,0.000000,,2013-07-24 11:52:00,
2013-07-24 06:02:00,69.0,65.0,30.06,ENE,70,3.0,5.0,86,-99.99,,,-99.99,0.000000,,2013-07-24 12:02:00,
2013-07-24 06:12:00,69.0,65.0,30.07,East,85,2.0,4.0,87,-99.99,,,-99.99,0.000000,,2013-07-24 12:12:00,
2013-07-24 06:22:00,69.0,65.0,30.07,East,90,3.0,4.0,87,-99.99,,,-99.99,0.000000,,2013-07-24 12:22:00,
2013-07-24 06:32:00,69.0,65.0,30.07,East,90,3.0,4.0,87,-99.99,,,-99.99,0.000000,,2013-07-24 12:32:00,
2013-07-24 06:42:00,69.0,65.0,30.07,ESE,112,4.0,5.0,88,-99.99,,,-99.99,0.700000,,2013-07-24 12:42:00,
2013-07-24 07:02:00,68.0,65.0,30.07,ESE,103,5.0,6.0,88,-99.99,,,-99.99,4.880000,,2013-07-24 13:02:00,
2013-07-24 07:12:00,68.0,65.0,30.07,ESE,103,5.0,6.0,88,-99.99,,,-99.99,4.880000,,2013-07-24 13:12:00,
2013-07-24 07:22:00,69.0,65.0,30.08,ESE,109,2.0,3.0,88,-99.99,,,-99.99,30.680000,,2013-07-24 13:22:00,
2013-07-24 07:32:00,69.0,65.0,30.08,ESE,109,2.0,3.0,88,-99.99,,,-99.99,30.680000,,2013-07-24 13:32:00,
2013-07-24 07:43:00,69.0,65.0,30.08,East,92,2.0,3.0,87,-99.99,,,-99.99,48.119999,,2013-07-24 13:43:00,
2013-07-24 07:53:00,70.0,66.0,30.09,ESE,119,2.0,4.0,86,-99.99,,,-99.99,64.150002,,2013-07-24 13:53:00,
2013-07-24 08:02:00,70.0,66.0,30.09,ESE,119,2.0,4.0,86,-99.99,,,-99.99,64.150002,,2013-07-24 14:02:00,
2013-07-24 08:12:00,70.0,66.0,30.10,South,190,4.0,6.0,86,-99.99,,,-99.99,98.320000,,2013-07-24 14:12:00,
2013-07-24 08:22:00,71.0,66.0,30.10,SW,216,6.0,8.0,83,-99.99,,,-99.99,177.119995,,2013-07-24 14:22:00,
2013-07-24 08:32:00,71.0,66.0,30.10,SW,216,6.0,8.0,83,-99.99,,,-99.99,177.119995,,2013-07-24 14:32:00,
2013-07-24 08:43:00,72.0,66.0,30.10,SW,221,6.0,9.0,80,-99.99,,,-99.99,209.899994,,2013-07-24 14:43:00,
2013-07-24 08:55:00,75.0,65.0,30.10,SSW,205,6.0,11.0,73,-99.99,,,-99.99,306.829987,,2013-07-24 14:55:00,
2013-07-24 09:02:00,75.0,65.0,30.10,SSW,205,6.0,11.0,73,-99.99,,,-99.99,306.829987,,2013-07-24 15:02:00,
2013-07-24 09:12:00,77.0,65.0,30.10,South,185,7.0,12.0,66,-99.99,,,-99.99,361.220001,,2013-07-24 15:12:00,
2013-07-24 09:22:00,77.0,65.0,30.11,South,188,6.0,12.0,65,-99.99,,,-99.99,246.860001,,2013-07-24 15:22:00,
2013-07-24 09:32:00,77.0,65.0,30.11,South,188,6.0,12.0,65,-99.99,,,-99.99,246.860001,,2013-07-24 15:32:00,
2013-07-24 09:43:00,77.0,64.0,30.11,South,179,6.0,11.0,64,-99.99,,,-99.99,236.399994,,2013-07-24 15:43:00,
2013-07-24 09:53:00,78.0,64.0,30.11,South,180,6.0,11.0,62,-99.99,,,-99.99,487.440002,,2013-07-24 15:53:00,
2013-07-24 10:02:00,78.0,64.0,30.11,South,180,6.0,11.0,62,-99.99,,,-99.99,487.440002,,2013-07-24 16:02:00,
2013-07-24 10:12:00,80.0,65.0,30.11,SSE,159,8.0,13.0,59,-99.99,,,-99.99,558.559998,,2013-07-24 16:12:00,
2013-07-24 10:22:00,80.0,65.0,30.11,SSE,166,9.0,15.0,59,-99.99,,,-99.99,589.940002,,2013-07-24 16:22:00,
2013-07-24 10:32:00,80.0,65.0,30.11,SSE,166,9.0,15.0,59,-99.99,,,-99.99,589.940002,,2013-07-24 16:32:00,
2013-07-24 10:43:00,81.0,64.0,30.11,South,170,9.0,14.0,57,-99.99,,,-99.99,624.109985,,2013-07-24 16:43:00,
2013-07-24 10:53:00,82.0,64.0,30.11,South,173,8.0,17.0,54,-99.99,,,-99.99,650.609985,,2013-07-24 16:53:00,
2013-07-24 11:02:00,82.0,64.0,30.11,South,173,8.0,17.0,54,-99.99,,,-99.99,650.609985,,2013-07-24 17:02:00,
2013-07-24 11:12:00,82.0,64.0,30.12,South,174,9.0,15.0,53,-99.99,,,-99.99,696.640015,,2013-07-24 17:12:00,
2013-07-24 11:22:00,83.0,64.0,30.12,South,176,9.0,17.0,53,-99.99,,,-99.99,695.239990,,2013-07-24 17:22:00,
2013-07-24 11:33:00,83.0,64.0,30.12,South,176,9.0,17.0,53,-99.99,,,-99.99,695.239990,,2013-07-24 17:33:00,
2013-07-24 11:43:00,84.0,64.0,30.12,South,171,9.0,15.0,50,-99.99,,,-99.99,767.070007,,2013-07-24 17:43:00,
2013-07-24 11:53:00,84.0,63.0,30.12,SSE,163,10.0,17.0,49,-99.99,,,-99.99,762.190002,,2013-07-24 17:53:00,
2013-07-24 12:02:00,84.0,63.0,30.12,SSE,163,10.0,17.0,49,-99.99,,,-99.99,762.190002,,2013-07-24 18:02:00,
2013-07-24 12:12:00,85.0,63.0,30.12,South,180,10.0,19.0,48,-99.99,,,-99.99,817.969971,,2013-07-24 18:12:00,
2013-07-24 12:22:00,86.0,63.0,30.11,South,169,9.0,17.0,47,-99.99,,,-99.99,836.099976,,2013-07-24 18:22:00,
2013-07-24 12:33:00,86.0,63.0,30.11,South,169,9.0,17.0,47,-99.99,,,-99.99,836.099976,,2013-07-24 18:33:00,
2013-07-24 13:22:00,88.0,60.0,30.09,South,175,10.0,20.0,39,-99.99,,,-99.99,912.109985,,2013-07-24 19:22:00,
2013-07-24 13:32:00,88.0,60.0,30.09,South,175,10.0,20.0,39,-99.99,,,-99.99,912.109985,,2013-07-24 19:32:00,
2013-07-24 13:43:00,89.0,60.0,30.08,South,188,9.0,18.0,37,-99.99,,,-99.99,914.900024,,2013-07-24 19:43:00,
2013-07-24 13:53:00,89.0,59.0,30.07,South,183,11.0,21.0,36,-99.99,,,-99.99,921.869995,,2013-07-24 19:53:00,
2013-07-24 14:02:00,89.0,59.0,30.07,South,183,11.0,21.0,36,-99.99,,,-99.99,921.869995,,2013-07-24 20:02:00,
2013-07-24 14:13:00,90.0,59.0,30.06,SSW,200,12.0,21.0,35,-99.99,,,-99.99,828.429993,,2013-07-24 20:13:00,
2013-07-24 14:23:00,90.0,58.0,30.04,SSW,203,12.0,28.0,33,-99.99,,,-99.99,914.200012,,2013-07-24 20:23:00,
2013-07-24 14:32:00,90.0,58.0,30.04,SSW,203,12.0,28.0,33,-99.99,,,-99.99,914.200012,,2013-07-24 20:32:00,
2013-07-24 14:42:00,90.0,58.0,30.03,SSW,193,13.0,25.0,34,-99.99,,,-99.99,857.020020,,2013-07-24 20:42:00,
2013-07-24 14:53:00,91.0,57.0,30.03,South,190,10.0,19.0,32,-99.99,,,-99.99,905.140015,,2013-07-24 20:53:00,
2013-07-24 15:02:00,91.0,57.0,30.03,South,190,10.0,19.0,32,-99.99,,,-99.99,905.140015,,2013-07-24 21:02:00,
2013-07-24 15:12:00,91.0,58.0,30.02,SSW,199,13.0,23.0,33,-99.99,,,-99.99,718.950012,,2013-07-24 21:12:00,
2013-07-24 15:22:00,91.0,58.0,30.02,South,183,7.0,17.0,32,-99.99,,,-99.99,870.969971,,2013-07-24 21:22:00,
2013-07-24 15:32:00,91.0,58.0,30.02,South,183,7.0,17.0,32,-99.99,,,-99.99,870.969971,,2013-07-24 21:32:00,
2013-07-24 15:43:00,92.0,58.0,30.01,South,181,11.0,21.0,32,-99.99,,,-99.99,840.979980,,2013-07-24 21:43:00,
2013-07-24 15:53:00,91.0,57.0,30.00,South,184,10.0,21.0,32,-99.99,,,-99.99,816.580017,,2013-07-24 21:53:00,
2013-07-24 16:02:00,91.0,57.0,30.00,South,184,10.0,21.0,32,-99.99,,,-99.99,816.580017,,2013-07-24 22:02:00,
2013-07-24 16:12:00,92.0,57.0,30.00,South,184,11.0,21.0,31,-99.99,,,-99.99,771.250000,,2013-07-24 22:12:00,
2013-07-24 16:22:00,91.0,57.0,30.00,SW,219,13.0,23.0,31,-99.99,,,-99.99,619.229980,,2013-07-24 22:22:00,
2013-07-24 16:32:00,91.0,57.0,30.00,SW,219,13.0,23.0,31,-99.99,,,-99.99,619.229980,,2013-07-24 22:32:00,
2013-07-24 16:43:00,93.0,56.0,30.00,South,185,13.0,21.0,28,-99.99,,,-99.99,709.890015,,2013-07-24 22:43:00,
2013-07-24 16:53:00,92.0,55.0,30.00,SSW,198,11.0,23.0,28,-99.99,,,-99.99,662.469971,,2013-07-24 22:53:00,
2013-07-24 17:02:00,92.0,55.0,30.00,SSW,198,11.0,23.0,28,-99.99,,,-99.99,662.469971,,2013-07-24 23:02:00,
2013-07-24 17:12:00,93.0,55.0,30.00,SSW,195,14.0,25.0,28,-99.99,,,-99.99,635.969971,,2013-07-24 23:12:00,
2013-07-24 17:22:00,93.0,55.0,30.00,SSW,206,14.0,24.0,27,-99.99,,,-99.99,550.200012,,2013-07-24 23:22:00,
2013-07-24 17:32:00,93.0,55.0,30.00,SSW,206,14.0,24.0,27,-99.99,,,-99.99,550.200012,,2013-07-24 23:32:00,
2013-07-24 17:43:00,93.0,54.0,29.99,SSW,208,13.0,25.0,27,-99.99,,,-99.99,561.349976,,2013-07-24 23:43:00,
2013-07-24 17:52:00,93.0,55.0,29.99,SW,215,11.0,18.0,27,-99.99,,,-99.99,521.609985,,2013-07-24 23:52:00,
2013-07-24 18:02:00,93.0,55.0,29.99,SW,215,11.0,18.0,27,-99.99,,,-99.99,521.609985,,2013-07-25 00:02:00,
2013-07-24 18:12:00,93.0,54.0,29.99,SW,217,11.0,22.0,27,-99.99,,,-99.99,378.649994,,2013-07-25 00:12:00,
2013-07-24 18:22:00,92.0,56.0,29.98,SSW,212,12.0,20.0,29,-99.99,,,-99.99,182.699997,,2013-07-25 00:22:00,
2013-07-24 18:33:00,92.0,56.0,29.98,SSW,212,12.0,20.0,29,-99.99,,,-99.99,182.699997,,2013-07-25 00:33:00,
2013-07-24 18:43:00,91.0,55.0,29.99,SW,216,11.0,17.0,29,-99.99,,,-99.99,131.100006,,2013-07-25 00:43:00,
2013-07-24 18:53:00,92.0,55.0,29.99,SSW,197,7.0,15.0,28,-99.99,,,-99.99,99.720001,,2013-07-25 00:53:00,
2013-07-24 19:02:00,92.0,55.0,29.99,SSW,197,7.0,15.0,28,-99.99,,,-99.99,99.720001,,2013-07-25 01:02:00,
2013-07-24 19:12:00,92.0,55.0,30.00,SSW,203,3.0,7.0,29,-99.99,,,-99.99,92.050003,,2013-07-25 01:12:00,
2013-07-24 19:22:00,88.0,58.0,30.01,North,6,17.0,36.0,36,-99.99,,,-99.99,101.110001,,2013-07-25 01:22:00,
2013-07-24 19:32:00,88.0,58.0,30.01,North,6,17.0,36.0,36,-99.99,,,-99.99,101.110001,,2013-07-25 01:32:00,
2013-07-24 19:43:00,84.0,60.0,30.02,North,10,26.0,37.0,44,-99.99,,,-99.99,73.919998,,2013-07-25 01:43:00,
2013-07-24 20:02:00,83.0,60.0,30.02,North,4,25.0,36.0,45,-99.99,,,-99.99,42.540001,,2013-07-25 02:02:00,
2013-07-24 20:12:00,83.0,60.0,30.03,North,8,25.0,35.0,45,-99.99,,,-99.99,25.100000,,2013-07-25 02:12:00,
2013-07-24 20:22:00,83.0,60.0,30.04,North,9,27.0,39.0,46,-99.99,,,-99.99,10.460000,,2013-07-25 02:22:00,
2013-07-24 20:33:00,83.0,60.0,30.04,North,9,27.0,39.0,46,-99.99,,,-99.99,10.460000,,2013-07-25 02:33:00,
2013-07-24 20:43:00,81.0,60.0,30.07,NE,34,21.0,36.0,48,-99.99,,,-99.99,1.390000,,2013-07-25 02:43:00,
2013-07-24 20:53:00,80.0,61.0,30.08,NE,49,15.0,21.0,52,-99.99,,,-99.99,0.000000,,2013-07-25 02:53:00,
2013-07-24 21:02:00,80.0,61.0,30.08,NE,49,15.0,21.0,52,-99.99,,,-99.99,0.000000,,2013-07-25 03:02:00,
2013-07-24 21:15:00,79.0,62.0,30.11,East,88,13.0,23.0,55,-99.99,,,-99.99,0.000000,,2013-07-25 03:15:00,
2013-07-24 21:24:00,77.0,63.0,30.10,East,86,13.0,23.0,61,-99.99,,,-99.99,0.000000,,2013-07-25 03:24:00,
2013-07-24 21:35:00,77.0,63.0,30.10,East,86,13.0,23.0,61,-99.99,,,-99.99,0.000000,,2013-07-25 03:35:00,
2013-07-24 21:44:00,76.0,64.0,30.13,ESE,106,8.0,16.0,67,-99.99,,,-99.99,0.000000,,2013-07-25 03:44:00,
2013-07-24 22:02:00,75.0,63.0,30.14,SSW,202,3.0,7.0,66,-99.99,,,-99.99,0.000000,,2013-07-25 04:02:00,
2013-07-24 22:12:00,75.0,63.0,30.15,North,8,3.0,5.0,65,-99.99,,,-99.99,0.000000,,2013-07-25 04:12:00,
2013-07-24 22:22:00,75.0,63.0,30.16,East,100,9.0,18.0,66,-99.99,,,-99.99,0.000000,,2013-07-25 04:22:00,
2013-07-24 22:32:00,75.0,63.0,30.16,East,100,9.0,18.0,66,-99.99,,,-99.99,0.000000,,2013-07-25 04:32:00,
2013-07-24 22:43:00,73.0,65.0,30.17,ESE,105,7.0,14.0,74,-99.99,,,-99.99,0.000000,,2013-07-25 04:43:00,
2013-07-24 22:53:00,73.0,65.0,30.17,ESE,105,7.0,14.0,74,-99.99,,,-99.99,0.000000,,2013-07-25 04:53:00,
2013-07-24 23:02:00,73.0,65.0,30.17,ESE,105,7.0,14.0,74,-99.99,,,-99.99,0.000000,,2013-07-25 05:02:00,
2013-07-24 23:12:00,71.0,64.0,30.20,SSE,159,6.0,10.0,80,-99.99,,,-99.99,0.000000,,2013-07-25 05:12:00,
2013-07-24 23:22:00,70.0,65.0,30.21,SSW,199,5.0,10.0,85,-99.99,,,-99.99,0.000000,,2013-07-25 05:22:00,
2013-07-24 23:32:00,70.0,65.0,30.21,SSW,199,5.0,10.0,85,-99.99,,,-99.99,0.000000,,2013-07-25 05:32:00,
2013-07-24 23:43:00,69.0,66.0,30.20,North,8,4.0,8.0,90,-99.99,,,-99.99,0.000000,,2013-07-25 05:43:00,
2013-07-24 23:52:00,69.0,66.0,30.19,North,0,8.0,14.0,91,-99.99,,,-99.99,0.000000,,2013-07-25 05:52:00,